FW7253 Weather Reports


time (UTC)temp
F
wind
direction
speed
knots
gust
knots
rain 1hr
in
rain 24hr
in
rain mn
in
humidity
%
barometer
mb
20260504194034 49 243 7.0 12.2 0.00 0.00 0.00 58 1006.5
20260504193534 49 260 7.0 16.5 0.00 0.00 0.00 58 1006.5
20260504193042 50 252 8.7 16.5 0.00 0.00 0.00 57 1006.4
20260504192533 50 232 7.8 13.0 0.00 0.00 0.00 58 1006.2
20260504192033 50 224 6.1 11.3 0.00 0.00 0.00 59 1006.2
20260504191552 50 296 4.3 12.2 0.00 0.00 0.00 58 1006.2
20260504191035 50 299 6.1 15.6 0.00 0.00 0.00 58 1006.0
20260504190534 51 238 6.1 15.6 0.00 0.00 0.00 58 1005.9
20260504190049 51 9 8.7 17.4 0.00 0.00 0.00 57 1005.8
20260504185533 51 240 8.7 17.4 0.00 0.00 0.00 57 1005.6
20260504185033 51 279 9.6 17.4 0.00 0.00 0.00 56 1005.6
20260504184552 51 231 9.6 15.6 0.00 0.00 0.00 55 1005.6
20260504184034 52 198 6.1 19.1 0.00 0.00 0.00 55 1005.5
20260504183534 52 290 6.1 19.1 0.00 0.00 0.00 54 1005.7
20260504183047 52 305 7.0 17.4 0.00 0.00 0.00 52 1006.1
20260504182533 53 233 7.8 19.1 0.00 0.00 0.00 51 1005.8
20260504182035 53 226 9.6 19.1 0.00 0.00 0.00 50 1005.7
20260504181549 53 219 7.8 13.0 0.00 0.00 0.00 50 1005.4
20260504181033 53 251 6.1 15.6 0.00 0.00 0.00 49 1005.6
20260504180534 53 241 8.7 15.6 0.00 0.00 0.00 49 1005.4
20260504180045 53 240 7.8 11.3 0.00 0.00 0.00 49 1005.4
20260504175533 54 248 6.1 17.4 0.00 0.00 0.00 48 1005.3
20260504175035 54 295 7.0 26.1 0.00 0.00 0.00 47 1005.3
20260504174541 54 292 7.8 26.1 0.00 0.00 0.00 45 1005.2
20260504174034 55 284 13.0 25.2 0.00 0.00 0.00 45 1005.2
20260504173533 55 202 7.0 20.9 0.00 0.00 0.00 45 1005.1
20260504173040 55 282 10.4 20.9 0.00 0.00 0.00 45 1005.2
20260504172609 55 250 9.6 21.7 0.00 0.00 0.00 44 1005.3
20260504172033 55 250 12.2 21.7 0.00 0.00 0.00 44 1005.1
20260504171549 56 218 13.0 20.9 0.00 0.00 0.00 43 1005.1
20260504171034 56 217 9.6 17.4 0.00 0.00 0.00 43 1005.2
20260504170534 57 262 6.1 15.6 0.00 0.00 0.00 42 1005.1
20260504151035 59 248 11.3 19.1 0.00 0.00 0.00 37 1005.3
20260504150534 59 237 6.1 14.8 0.00 0.00 0.00 38 1005.3
20260504141033 59 230 8.7 23.5 0.00 0.00 0.00 36 1005.2
20260504140533 59 245 8.7 17.4 0.00 0.00 0.00 37 1005.3
20260504130533 61 262 8.7 22.6 0.00 0.00 0.00 32 1005.6
20260504110533 59 252 3.5 11.3 0.00 0.00 0.00 36 1006.0
20260504100532 56 293 2.6 10.4 0.00 0.00 0.00 37 1006.2
20260504081541 52 334 5.2 12.2 0.00 0.00 0.00 48 1006.4
20260504081033 51 343 6.1 12.2 0.00 0.00 0.00 49 1006.4
20260504080532 51 4 5.2 10.4 0.00 0.00 0.00 50 1006.4
20260504050540 42 336 0.0 2.6 0.00 0.00 0.00 92 1005.3
20260504045533 42 2 1.7 3.5 0.00 0.00 0.00 92 1005.4
20260504045033 42 354 1.7 3.5 0.00 0.00 0.00 93 1005.4
20260504044546 41 6 0.9 2.6 0.00 0.00 0.00 92 1005.3
20260504044034 41 18 0.0 0.9 0.00 0.00 0.00 92 1005.3
20260504043533 41 338 0.0 0.9 0.00 0.00 0.00 93 1005.3
20260504043042 41 0 0.0 0.9 0.00 0.00 0.00 92 1005.2
20260504042532 39 0 0.0 0.9 0.00 0.00 0.00 92 1005.3
20260504042032 39 0 0.0 0.0 0.00 0.00 0.00 92 1005.3
20260504041546 40 0 0.0 0.0 0.00 0.00 0.00 91 1005.3
20260504041032 40 0 0.0 0.0 0.00 0.00 0.00 91 1005.3
20260504040533 40 0 0.0 0.0 0.00 0.00 0.00 91 1005.2
20260504040053 40 0 0.0 0.9 0.00 0.00 0.00 91 1005.3
20260504035533 40 0 0.0 0.9 0.00 0.00 0.00 90 1005.3
20260504035032 41 0 0.0 0.9 0.00 0.00 0.00 90 1005.3
20260504034557 42 0 0.0 2.6 0.00 0.00 0.00 90 1005.4
20260504034033 42 0 0.0 2.6 0.00 0.00 0.00 90 1005.5
20260504033533 42 358 0.0 2.6 0.00 0.00 0.00 90 1005.4
20260504033114 43 344 0.0 2.6 0.00 0.00 0.00 90 1005.4
20260504032533 43 0 1.7 2.6 0.00 0.00 0.00 90 1005.3
20260504032032 43 1 0.9 1.7 0.00 0.00 0.00 89 1005.4
20260504031538 44 0 0.0 0.0 0.00 0.00 0.00 89 1005.5
20260504031035 44 0 0.0 0.0 0.00 0.00 0.00 89 1005.5
20260504030533 44 0 0.0 0.0 0.00 0.00 0.00 89 1005.6
20260504030047 45 0 0.0 0.0 0.00 0.00 0.00 88 1005.6
20260504025534 45 0 0.0 0.0 0.00 0.00 0.00 88 1005.5
20260504025033 45 0 0.0 0.0 0.00 0.00 0.00 88 1005.5
20260504024541 45 0 0.0 0.9 0.00 0.00 0.00 88 1005.7
20260504024033 45 0 0.0 2.6 0.00 0.00 0.00 88 1005.7
20260504023533 45 0 0.0 2.6 0.00 0.00 0.00 88 1005.6
20260504023057 46 227 0.9 2.6 0.00 0.00 0.00 88 1005.6
20260504022533 46 0 0.0 0.9 0.00 0.00 0.00 87 1005.5
20260504022032 46 0 0.0 3.5 0.00 0.00 0.00 87 1005.7
20260504021546 46 0 0.0 3.5 0.00 0.00 0.00 87 1005.7
20260504021032 46 229 0.0 1.7 0.00 0.00 0.00 87 1005.7
20260504020533 46 0 0.0 2.6 0.00 0.00 0.00 87 1005.8
20260504020057 46 0 0.0 2.6 0.00 0.00 0.00 87 1005.7
20260504015532 46 212 0.0 1.7 0.00 0.00 0.00 88 1005.8
20260504015036 46 286 0.0 2.6 0.00 0.00 0.00 87 1005.9
20260504014548 46 0 0.0 2.6 0.00 0.00 0.00 87 1005.8
20260504014032 47 306 0.0 2.6 0.00 0.00 0.00 87 1005.8
20260504013533 47 0 0.0 1.7 0.00 0.00 0.00 88 1005.8
20260504013045 47 0 0.0 2.6 0.00 0.00 0.00 87 1005.9
20260504012533 47 269 0.0 2.6 0.00 0.00 0.00 88 1005.8
20260504012033 47 0 0.0 1.7 0.00 0.00 0.00 89 1005.9
20260504011540 47 0 0.0 0.9 0.00 0.00 0.00 89 1006.0
20260504011032 47 0 0.0 0.9 0.00 0.00 0.00 89 1006.0
20260504010532 47 0 0.0 0.9 0.00 0.00 0.00 89 1006.0
20260504010047 47 275 0.0 0.9 0.00 0.00 0.00 88 1006.1
20260504005532 47 0 0.0 1.7 0.00 0.00 0.00 88 1006.2
20260504005032 47 0 0.0 1.7 0.00 0.00 0.00 88 1006.1
20260504004559 47 0 0.0 3.5 0.00 0.00 0.00 88 1006.2
20260504004033 47 0 0.9 3.5 0.00 0.00 0.00 88 1006.2
20260504003532 47 158 0.9 3.5 0.00 0.00 0.00 88 1006.1
20260504003038 47 0 0.0 2.6 0.00 0.00 0.00 89 1006.2
20260504002533 47 165 0.0 1.7 0.00 0.00 0.00 89 1006.4
20260504002033 47 0 0.0 0.9 0.00 0.00 0.00 89 1006.4
20260504001541 47 0 0.0 0.9 0.00 0.00 0.00 89 1006.5
20260504001032 47 0 0.0 1.7 0.00 0.00 0.00 89 1006.6
20260504000533 47 211 0.0 1.7 0.00 0.00 0.00 89 1006.5
20260504000041 47 0 0.0 2.6 0.00 0.00 0.00 89 1006.6
20260503235533 47 0 0.0 2.6 0.00 0.00 0.00 90 1006.6
20260503235033 47 0 0.0 0.9 0.00 0.00 0.00 90 1006.6
20260503234543 47 0 0.0 1.7 0.00 0.00 0.00 90 1006.6
20260503234033 47 169 0.0 1.7 0.00 0.00 0.00 90 1006.8
20260503233533 47 0 0.0 1.7 0.00 0.00 0.00 91 1006.8
20260503233038 47 198 0.0 1.7 0.00 0.00 0.00 91 1006.7
20260503232532 47 0 0.9 1.7 0.00 0.00 0.00 91 1006.9
20260503232032 47 0 0.0 0.9 0.00 0.00 0.00 91 1007.1
20260503231538 47 0 0.0 0.0 0.00 0.00 0.00 91 1007.1
20260503231032 47 0 0.0 0.9 0.00 0.00 0.00 91 1007.2
20260503230536 47 0 0.0 0.9 0.00 0.00 0.00 91 1007.3
20260503230048 47 293 0.0 0.9 0.00 0.00 0.00 91 1007.3
20260503225534 47 219 0.0 0.9 0.00 0.00 0.00 91 1007.3
20260503225034 47 0 0.0 1.7 0.00 0.00 0.00 91 1007.4
20260503224541 47 0 0.0 3.5 0.00 0.00 0.00 91 1007.3
20260503224035 47 127 0.9 3.5 0.00 0.00 0.00 91 1007.2
20260503223535 47 0 0.0 0.9 0.00 0.00 0.00 91 1007.2
20260503223057 47 0 0.0 1.7 0.00 0.00 0.00 91 1007.3
20260503222534 47 0 0.0 2.6 0.00 0.00 0.00 91 1007.4
20260503222034 47 189 0.0 2.6 0.00 0.00 0.00 90 1007.4
20260503221552 47 83 0.0 2.6 0.00 0.00 0.00 90 1007.3
20260503221037 47 0 0.0 1.7 0.00 0.00 0.00 90 1007.4
20260503220535 47 0 0.0 1.7 0.00 0.00 0.00 90 1007.4
20260503220049 47 151 0.0 1.7 0.00 0.00 0.00 90 1007.4
20260503215534 47 140 0.0 1.7 0.00 0.00 0.00 90 1007.4
20260503215034 47 166 0.0 2.6 0.00 0.00 0.00 90 1007.5
20260503214545 47 172 0.9 2.6 0.00 0.00 0.00 89 1007.5
20260503214038 48 159 0.9 2.6 0.00 0.00 0.00 89 1007.4
20260503213535 48 108 0.0 1.7 0.00 0.00 0.00 89 1007.6
20260503213103 48 0 0.0 1.7 0.00 0.00 0.00 89 1007.6
20260503212535 48 144 0.0 2.6 0.00 0.00 0.00 89 1007.6
20260503212033 48 0 0.9 2.6 0.00 0.00 0.00 89 1007.6
20260503211544 48 0 0.0 2.6 0.00 0.00 0.00 89 1007.7
20260503211034 48 155 0.0 2.6 0.00 0.00 0.00 89 1007.7
20260503210538 48 168 0.9 2.6 0.00 0.00 0.00 89 1007.8
20260503210057 48 129 0.0 2.6 0.00 0.00 0.00 88 1007.7
20260503205535 49 116 0.9 2.6 0.00 0.00 0.00 88 1007.9
20260503205035 49 119 0.9 2.6 0.00 0.00 0.00 88 1008.0
20260503204553 49 0 0.9 3.5 0.00 0.00 0.00 87 1007.9
20260503204034 49 131 0.0 3.5 0.00 0.00 0.00 87 1008.0
20260503203534 49 210 1.7 4.3 0.00 0.00 0.00 86 1008.0
20260503203056 49 0 0.0 5.2 0.00 0.00 0.00 85 1008.1
20260503202535 49 150 2.6 7.8 0.00 0.00 0.00 84 1008.2
20260503202035 49 203 4.3 7.8 0.00 0.00 0.00 84 1008.2
20260503201547 49 114 1.7 6.1 0.00 0.00 0.00 85 1008.3
20260503201034 49 208 1.7 6.1 0.00 0.00 0.00 85 1008.3
20260503200534 49 186 2.6 6.1 0.00 0.00 0.00 85 1008.3
20260503200051 49 207 2.6 6.1 0.00 0.00 0.00 85 1008.3
20260503195535 49 227 3.5 6.1 0.00 0.00 0.00 85 1008.3
20260503195035 49 186 3.5 8.7 0.00 0.00 0.00 86 1008.3
20260503194547 49 180 3.5 8.7 0.00 0.00 0.00 86 1008.3